www.pogodaiklimat.ru

Погода и климат >> Архив погоды >> Россия >> Приморский край >> Сосуново


ПОГОДА в Сосуново

  • Прогноз погоды в Сосуново
  • Монитор погоды в Сосуново

АРХИВ ПОГОДЫ в Сосуново

Время (UTC), дата Ветер
(напр.,м/с)
 
Видим.   Явления Облачность Т
(С)
Тd
(С)
f
(%)
Тe
(С)
Тes
(С)
Комфортность P
(гПа)
Po
(гПа)
Тmin
(С)
Tmax
(С)
R
(мм)
R24
(мм)
S
(см)
12 12.06 СЗ 2 20 км {ливн. осадки} 10/10 600 м
[Sc]
+8.4 +6.1 85 +7 +7 1013.0 1012.3
15 12.06 СЗ 2 н/о н/о +6.8 +5.5 91 +4 +4 1012.4 1011.8
18 12.06 З 2 н/о н/о +4.7 +3.6 93 +2 +2 1011.7 1011.0
21 12.06 ЮЗ 2 50 км 10/0
[Ac und]
+7.5 +6.4 93 +5 +6 1011.8 1011.2 +4.7 0.0
00 13.06 СВ 2 50 км 10/8 600 м
[Sc Ac und]
+9.8 +6.1 78 +8 +9 1011.6 1010.9
03 13.06 В 1 50 км 10/10 600 м
[Sc]
+10.3 +6.7 78 +10 +10 1011.1 1010.4
06 13.06 В 1 50 км 10/10 600 м
[Sc]
+10.3 +6.8 79 +10 +10 1010.3 1009.7
09 13.06 СВ 1 10 км слаб. ливневой дождь 10/10 300 м
[Cb cap]
+9.3 +7.4 88 +9 +9 1010.3 1009.6 +10.6 0.8
12 13.06 С 3 10 км слаб. ливневой дождь 10/10 300 м
[Cb cap]
+8.9 +7.6 92 +6 +6 1010.3 1009.6
15 13.06 СЗ 1 н/о н/о +8.7 +7.6 93 +8 +8 1008.4 1007.7
18 13.06 З 1 н/о н/о +8.6 +7.6 93 +8 +8 1006.7 1006.1
21 13.06 З 1 10 км слаб. ливневой дождь 10/10 300 м
[Cb cap]
+8.7 +7.6 93 +8 +8 1005.4 1004.8 +8.3 11
00 14.06 СВ 4 20 км {ливн. осадки, морось} 10/10 300 м
[St]
+10.6 +8.7 88 +8 +8 1004.4 1003.7
03 14.06 СВ 5 50 км 10/10 300 м
[St]
+11.4 +8.8 84 +9 +9 1005.0 1004.4
06 14.06 СВ 4 50 км 10/10 300 м
[St]
+11.3 +9.0 86 +9 +9 1005.8 1005.1
09 14.06 С 5
{10}
10 км слаб. ливневой дождь 10/10 300 м
[Cb cap]
+10.2 +8.0 86 +7 +7 1007.9 1007.3 +11.9 0.0
12 14.06 С 3
{10}
4000 м ливневой дождь 10/10 300 м
[Cb cap]
+9.5 +7.7 89 +7 +7 1010.2 1009.5
15 14.06 С 3 н/о н/о +9.1 +7.3 88 +7 +7 1011.3 1010.7
18 14.06 СВ 5 н/о н/о +9.2 +6.8 85 +6 +6 1011.5 1010.8
21 14.06 С 3 20 км 10/10 300 м
[St]
+8.7 +6.7 87 +6 +6 1011.9 1011.2 +8.4 4
00 15.06 С 2 10 км слаб. ливневой дождь 10/10 600 м
[Cb cap]
+9.0 +6.9 87 +7 +7 1013.7 1013.0
03 15.06 СВ 7 50 км {ливн. осадки} 10/6 600 м
[Cb cap As trans]
+9.6 +6.8 83 +6 +7 1013.9 1013.2
06 15.06 С 6 20 км {ливн. осадки} 10/10 600 м
[Cb cap]
+9.2 +6.8 85 +5 +5 1014.1 1013.4
09 15.06 С 5 20 км 10/10 600 м
[Cb cap]
+8.5 +5.7 83 +5 +5 1014.9 1014.3 +9.8 0.6
12 15.06 С 4 10 км слаб. ливневой дождь 10/10 600 м
[Cb cap]
+8.0 +4.4 78 +5 +5 1015.4 1014.8
15 15.06 С 4
{11}
н/о н/о +8.0 +3.5 73 +5 +5 1015.1 1014.5
18 15.06 С 6-12
{12}
н/о н/о +9.2 +3.3 67 +6 +6 1013.0 1012.3
21 15.06 С 10-16
{17}
50 км 10/8 600 м
[Cb cap Cc]
+9.1 +2.7 64 +5 +5 1012.6 1011.9 +7.8 0.0
00 16.06 СВ 13-17
{20}
50 км 10/6 600 м
[Cb cap Cc]
+10.1 +4.4 68 +5 +5 1011.4 1010.7
03 16.06 СВ 13-16
{19}
50 км 10/10 600 м
[Cb cap]
+9.8 +4.9 72 +5 +5 1010.0 1009.4
06 16.06 СВ 11-18
{18}
50 км 10/10 600 м
[Sc]
+9.1 +4.9 75 +4 +4 1010.0 1008.4
09 16.06 СВ 11-15
{18}
50 км 10/10 600 м
[Sc]
+8.5 +4.3 75 +3 +3 1008.4 1007.7 +10.3
12 16.06 С 4
{16}
50 км 10/4 1000 м
[Cu hum As op Ci fib]
+9.0 +2.4 63 +6 +6 1008.2 1007.5
15 16.06 СЗ 2 н/о н/о +6.6 +1.5 70 +5 +5 1006.5 1005.8
18 16.06 ЮЗ 4 н/о н/о +4.0 +1.7 85 -0 -0 1005.6 1005.0
21 16.06 ЮЗ 5 50 км 4/0
[Ci fib]
+6.5 +2.6 76 +2 +4 1006.4 1005.7 +3.8
00 17.06 ЮВ 2 50 км 6/0
[Ci fib]
+14.0 +1.7 43 +14 +25 опасность
простуды
1006.3 1005.6
03 17.06 Ю 7-10
{10}
50 км 3/0
[Ci fib]
+14.9 +2.2 42 +13 +18 1006.2 1005.5
06 17.06 Ю 4
{12}
50 км 8/8 600 м
[Cu hum]
+11.7 +6.8 72 +10 +11 1006.9 1006.3
09 17.06 Ю 4 50 км 10/0
[Ci fib]
+9.7 +6.6 81 +7 +8 1007.7 1007.0 +15.8
12 17.06 штиль 0 50 км 10/0
[Ci fib]
+9.2 +6.9 86 +8 +8 1009.0 1008.4
15 17.06 С 2 н/о н/о +9.1 +6.8 86 +7 +7 1009.3 1008.6
18 17.06 ЮЗ 1 н/о н/о +6.3 +4.8 90 +5 +5 1008.5 1007.9
21 17.06 ЮЗ 6 20 км ясно +7.9 +5.9 87 +4 +5 1007.6 1007.0 +4.8
00 18.06 Ю 4 20 км 3/0
[Ci fib]
+12.0 +7.6 74 +10 +18 1006.4 1005.7
03 18.06 ЮЗ 3 20 км 3/0 600 м
[]
+12.7 +8.1 74 +11 +25 опасность
простуды
1005.5 1004.8
06 18.06 Ю 5
{11}
20 км 3/3 300 м
[St]
+10.8 +7.8 82 +8 +12 1005.1 1004.5
09 18.06 З 1 200 м туман ?/? +8.4 +7.3 93 +8 +8 1004.5 1003.9 +16.4
12 18.06 Ю 4 200 м туман ?/? +8.5 +7.4 93 +5 +5 1004.9 1004.2
15 18.06 ЮЗ 5 н/о н/о +8.4 +7.3 93 +5 +5 1003.8 1003.1
18 18.06 З 2 н/о н/о +7.3 +6.0 91 +5 +5 1003.5 1002.8
21 18.06 штиль 0 20 км {туман} ясно +10.0 +8.8 92 +9 +12 1004.1 1003.4 +4.6
00 19.06 ЮВ 3 20 км {туман} 3/3 600 м
[Cu med, cong]
+10.4 +8.0 85 +8 +16 1004.8 1004.1
03 19.06 ЮВ 4 20 км 3/3 600 м
[Cu med, cong]
+10.9 +8.2 83 +8 +17 1004.4 1003.7
06 19.06 Ю 3 20 км 6/4 600 м
[Cu med, cong Ci fib]
+10.4 +8.0 85 +8 +13 1004.0 1003.3
09 19.06 ЮВ 2 200 м туман ясно +8.6 +7.3 92 +7 +8 1005.2 1004.6 +14.5

 

Местоположение метеостанции Сосуново (Приморский край, Россия): широта 46.55 долгота 138.30 высота над уровнем моря 4 м.

В архиве по умолчанию представлена погода в Сосуново за последнюю неделю. Архивные данные за месяц целиком и за предыдущие месяцы, начиная с января 2011 года, Вы можете получить, выбрав интересующий диапазон дат из раскрывающегося списка и нажав кнопку "Ввод!".


*Определитесь, кто Вы:
робот инопланетянин человек

Внимание! Время в таблицах - всемирное. Для получения местного времени необходимо прибавить поправку, которая равна 10 ч.

Смотрите также архив погоды в соседних городах и на ближайших метеорологических станциях:

Погода в Агзу (Приморский край, Россия) (117 км)
Погода в Сукпае (Хабаровский край, Россия) (142 км)
Погода в Малой Кеме (Приморский край, Россия) (158 км)
Погода в Гвасюгах (Хабаровский край, Россия) (208 км)
Погода в Тернее (Приморский край, Россия) (217 км)
Погода на Острове Монерон (Сахалинская область, Россия) (225 км)
Погода в Красном Яре (Приморский край, Россия) (230 км)
Погода в Глубинном (Приморский край, Россия) (237 км)
Погода в Бичевой (Хабаровский край, Россия) (245 км)
Погода в Тивяку (Хабаровский край, Россия) (248 км)

Пояснения к столбцам:

Ветер - указаны скорость ветра в м/с - средняя за 10 мин, порывы в срок и между сроками (в фигурных скобках) и направление, откуда дует ветер: С - северный, СВ - северо-восточный, В - восточный, ЮВ - юго-восточный, Ю - южный, ЮЗ - юго-западный, З - западный, СЗ - северо-западный.
Видимость - горизонтальная дальность видимости в метрах или километрах. При видимости от 1 до 10 км при отсутствии осадков обычно наблюдается дымка, при ухудшении видимости до 1 км и менее - туман. В сухую погоду видимость может ухудшаться дымом, пылью или мглою.
Явления - указаны атмосферные явления, наблюдавшиеся в срок или в последний час перед сроком; фигурными скобками обозначены явления, наблюдавшиеся между сроками (за 1-3 часа до срока); квадратными скобками обозначены град или гололедные отложения с указанием их диаметра в мм.
Облачность - указаны через наклонную черту общая и нижняя облачность в баллах и высота нижней границы облаков в метрах; квадратными скобками обозначены формы облаков: Ci - перистые, Cs - перисто-слоистые, Cc - перисто-кучевые, Ac - высококучевые, As - высокослоистые, Sc - слоисто-кучевые, Ns - слоисто-дождевые, Cu - кучевые, Cb - кучево-дождевые. Подробнее классификацию облаков см. в Атласе облаков (PDF).
T - Температура воздуха - температура, измеренная на высоте 2 м над землей.
Td - Температура точки росы - температура, при понижении до которой содержащийся в воздухе водяной пар достигнет насыщения.
f - Относительная влажность воздуха - влажноcть воздуха, измеренная на высоте 2 м над землей.
Te - Эффективная температура - температура, которую ощущает одетый по сезону человек в тени. Характеристика душности погоды. При расчете учитывается влияние влажности воздуха и скорости ветра на теплоощущения человека.
Tes - Эффективная температура на солнце - температура, которую ощущает человек, с поправкой на солнечный нагрев. Характеристика знойности погоды. Зависит от высоты солнца над горизонтом, облачности и скорости ветра. Ночью, в пасмурную погоду, а также при ветре 12 м/с и более поправка равна нулю.
P - Атмосферное давление - приведенное к уровню моря атмосферное давление.
Po - Атмосферное давление - измеренное на уровне метеостанции атмосферное давление.
Tmin - Минимальная температура - минимум температуры воздуха на высоте 2 м над землей.
Tmax - Максимальная температура - максимум температуры воздуха на высоте 2 м над землей.
R - Количество осадков - Количество выпавших осадков за период времени, мм. При наведении курсора мыши на число - период времени, за который выпало указанное количество осадков.
R24 - Количество осадков - Количество выпавших осадков за 24 часа, мм.
S - Снежный покров - Высота снежного покрова, см. При наведении курсора мыши на число - состояние снежного покрова и степень покрытия местности в баллах.